W7MKM-13 Weather Reports


time (UTC)temp
C
wind
direction
speed
KPH
gust
KPH
rain 1hr
cm
rain 24hr
cm
rain mn
cm
humidity
%
barometer
mb
20260502130516 9 203 1.6 11.3 0.00 0.00 0.00 53 1021.6
20260502123516 9 203 1.6 6.4 0.00 0.00 0.00 56 1021.8
20260502123016 9 0.0 3.2 0.00 0.00 0.00 56 1021.8
20260502122516 9 0.0 3.2 0.00 0.00 0.00 55 1021.7
20260502122015 9 0.0 4.8 0.00 0.00 0.00 54 1021.7
20260502121516 8 0.0 8.0 0.00 0.00 0.00 54 1021.8
20260502121015 8 0.0 6.4 0.00 0.00 0.00 53 1021.8
20260502120516 8 0.0 4.8 0.00 0.00 0.00 54 1021.7
20260502115516 8 0.0 3.2 0.00 0.00 0.00 54 1021.4
20260502115016 8 0.0 1.6 0.00 0.00 0.00 54 1021.4
20260502114016 8 0.0 1.6 0.00 0.00 0.00 51 1021.7
20260502113516 8 0.0 0.0 0.00 0.00 0.00 51 1021.7
20260502113015 9 0.0 0.0 0.00 0.00 0.00 51 1021.6
20260502112516 9 0.0 0.0 0.00 0.00 0.00 51 1021.7
20260502112015 9 0.0 3.2 0.00 0.00 0.00 51 1021.7
20260502111515 9 225 1.6 9.7 0.00 0.00 0.00 51 1021.8
20260502111016 9 0.0 4.8 0.00 0.00 0.00 51 1021.8
20260502110515 10 0.0 4.8 0.00 0.00 0.00 51 1021.8
20260502110016 10 0.0 3.2 0.00 0.00 0.00 50 1022.2
20260502105516 10 225 1.6 6.4 0.00 0.00 0.00 50 1022.1
20260502105016 10 0.0 4.8 0.00 0.00 0.00 50 1022.1
20260502104516 10 0.0 8.0 0.00 0.00 0.00 49 1022.1
20260502104016 10 225 1.6 9.7 0.00 0.00 0.00 51 1022.1
20260502103515 9 225 1.6 8.0 0.00 0.00 0.00 52 1021.8
20260502103016 9 0.0 6.4 0.00 0.00 0.00 52 1021.8
20260502102515 9 0.0 0.0 0.00 0.00 0.00 51 1021.8
20260502102016 9 0.0 1.6 0.00 0.00 0.00 50 1021.8
20260502101516 9 0.0 1.6 0.00 0.00 0.00 50 1021.8
20260502101016 9 0.0 3.2 0.00 0.00 0.00 50 1021.7
20260502100516 8 0.0 1.6 0.00 0.00 0.00 51 1021.7
20260502091516 6 0.0 0.0 0.00 0.00 0.00 61 1020.7
20260502091016 6 0.0 0.0 0.00 0.00 0.00 61 1020.7
20260502090516 6 0.0 0.0 0.00 0.00 0.00 61 1020.7
20260502071516 7 0.0 0.0 0.00 0.00 0.00 55 1021.0
20260502071015 7 0.0 0.0 0.00 0.00 0.00 55 1020.9
20260502070515 7 0.0 0.0 0.00 0.00 0.00 56 1021.0
20260502070016 7 0.0 0.0 0.00 0.00 0.00 56 1021.1
20260502065515 7 0.0 0.0 0.00 0.00 0.00 55 1021.0
20260502065016 8 0.0 0.0 0.00 0.00 0.00 55 1021.0
20260502064516 8 0.0 0.0 0.00 0.00 0.00 53 1020.9
20260502064016 8 0.0 0.0 0.00 0.00 0.00 53 1020.9
20260502063516 8 0.0 0.0 0.00 0.00 0.00 53 1020.9
20260502063016 8 0.0 0.0 0.00 0.00 0.00 52 1021.2
20260502062516 8 0.0 0.0 0.00 0.00 0.00 51 1021.2
20260502062016 8 0.0 0.0 0.00 0.00 0.00 50 1020.9
20260502061516 8 0.0 0.0 0.00 0.00 0.00 49 1020.9
20260502061016 9 0.0 0.0 0.00 0.00 0.00 48 1021.1
20260502060515 9 0.0 0.0 0.00 0.00 0.00 48 1021.0
20260502060015 9 0.0 0.0 0.00 0.00 0.00 47 1021.0
20260502055516 9 0.0 0.0 0.00 0.00 0.00 47 1021.0
20260502055016 9 0.0 0.0 0.00 0.00 0.00 47 1020.7
20260502054516 9 0.0 0.0 0.00 0.00 0.00 47 1020.6
20260502054016 10 0.0 0.0 0.00 0.00 0.00 47 1020.9
20260502053516 10 0.0 0.0 0.00 0.00 0.00 46 1020.9
20260502053016 10 0.0 0.0 0.00 0.00 0.00 45 1020.8
20260502052516 10 0.0 0.0 0.00 0.00 0.00 45 1020.8
20260502052016 10 0.0 0.0 0.00 0.00 0.00 43 1020.6
20260502051516 10 0.0 0.0 0.00 0.00 0.00 44 1020.6
20260502051016 10 0.0 0.0 0.00 0.00 0.00 43 1020.5
20260502050516 11 0.0 0.0 0.00 0.00 0.00 43 1020.6
20260502050016 11 0.0 0.0 0.00 0.00 0.00 43 1021.0
20260502045505 11 0.0 0.0 0.00 0.00 0.00 41 1020.9
20260502045016 11 0.0 0.0 0.00 0.00 0.00 41 1020.9
20260502044516 11 0.0 0.0 0.00 0.00 0.00 40 1020.6
20260502044016 11 0.0 0.0 0.00 0.00 0.00 40 1020.9
20260502043516 11 0.0 0.0 0.00 0.00 0.00 39 1020.9
20260502043016 11 0.0 0.0 0.00 0.00 0.00 38 1020.8
20260502042516 12 0.0 0.0 0.00 0.00 0.00 37 1020.7
20260502042016 12 0.0 0.0 0.00 0.00 0.00 35 1021.0
20260502041516 12 0.0 0.0 0.00 0.00 0.00 34 1020.3
20260502041016 12 0.0 0.0 0.00 0.00 0.00 33 1020.3
20260502040516 13 0.0 0.0 0.00 0.00 0.00 33 1020.2
20260502040016 13 0.0 0.0 0.00 0.00 0.00 33 1020.5
20260502035516 13 0.0 0.0 0.00 0.00 0.00 32 1020.4
20260502035016 13 0.0 0.0 0.00 0.00 0.00 32 1020.3
20260502034516 13 0.0 0.0 0.00 0.00 0.00 32 1020.4
20260502034016 13 0.0 0.0 0.00 0.00 0.00 32 1020.3
20260502033516 13 0.0 0.0 0.00 0.00 0.00 32 1020.2
20260502033016 13 0.0 0.0 0.00 0.00 0.00 32 1020.1
20260502032516 13 0.0 0.0 0.00 0.00 0.00 32 1020.1
20260502032016 13 0.0 0.0 0.00 0.00 0.00 33 1020.0
20260502031516 14 0.0 0.0 0.00 0.00 0.00 31 1019.4
20260502031016 14 0.0 0.0 0.00 0.00 0.00 31 1019.6
20260502030516 14 0.0 0.0 0.00 0.00 0.00 31 1019.5
20260502030016 15 0.0 0.0 0.00 0.00 0.00 30 1019.4
20260502025516 15 0.0 0.0 0.00 0.00 0.00 30 1019.3
20260502025016 15 0.0 0.0 0.00 0.00 0.00 29 1019.2
20260502024516 15 0.0 0.0 0.00 0.00 0.00 28 1019.5
20260502024016 15 0.0 0.0 0.00 0.00 0.00 28 1018.8
20260502023516 15 0.0 0.0 0.00 0.00 0.00 27 1018.8
20260502023016 16 0.0 0.0 0.00 0.00 0.00 27 1018.8
20260502022516 16 338 1.6 4.8 0.00 0.00 0.00 27 1019.0
20260502022016 16 338 3.2 6.4 0.00 0.00 0.00 26 1018.9
20260502021516 16 338 4.8 8.0 0.00 0.00 0.00 26 1019.0
20260502021016 16 338 4.8 11.3 0.00 0.00 0.00 26 1018.3
20260502020516 16 338 6.4 14.5 0.00 0.00 0.00 26 1018.6
20260502020016 16 338 4.8 11.3 0.00 0.00 0.00 26 1018.6
20260502015516 16 338 6.4 11.3 0.00 0.00 0.00 26 1018.6
20260502015016 17 338 9.7 16.1 0.00 0.00 0.00 25 1018.5
20260502014516 17 315 9.7 14.5 0.00 0.00 0.00 25 1018.4
20260502014016 17 315 6.4 14.5 0.00 0.00 0.00 25 1017.9
20260502013516 17 315 6.4 12.9 0.00 0.00 0.00 25 1017.8
20260502013016 17 315 6.4 17.7 0.00 0.00 0.00 25 1017.8
20260502012516 17 315 8.0 14.5 0.00 0.00 0.00 25 1017.8
20260502012016 17 0 6.4 14.5 0.00 0.00 0.00 25 1017.8
20260502011516 17 315 9.7 16.1 0.00 0.00 0.00 25 1017.7
20260502011016 17 315 8.0 19.3 0.00 0.00 0.00 25 1017.4
20260502010516 17 338 8.0 16.1 0.00 0.00 0.00 24 1017.4
20260502010016 17 338 8.0 14.5 0.00 0.00 0.00 25 1017.5
20260502005516 17 315 9.7 17.7 0.00 0.00 0.00 25 1017.4
20260502005016 18 338 9.7 17.7 0.00 0.00 0.00 24 1017.8
20260502004516 18 338 9.7 20.9 0.00 0.00 0.00 25 1017.7
20260502004016 18 338 9.7 17.7 0.00 0.00 0.00 25 1017.7
20260502003516 18 315 11.3 19.3 0.00 0.00 0.00 24 1017.7
20260502003016 18 315 8.0 17.7 0.00 0.00 0.00 23 1017.6
20260502002516 18 315 6.4 12.9 0.00 0.00 0.00 23 1017.7
20260502002016 18 0 8.0 16.1 0.00 0.00 0.00 25 1017.8
20260502001516 18 338 11.3 20.9 0.00 0.00 0.00 24 1017.8
20260502001016 18 315 9.7 20.9 0.00 0.00 0.00 23 1017.8
20260502000516 18 338 9.7 17.7 0.00 0.00 0.00 23 1018.2
20260502000016 18 315 9.7 19.3 0.00 0.00 0.00 23 1017.8
20260501235516 18 338 9.7 19.3 0.00 0.00 0.00 23 1018.2
20260501235016 18 315 8.0 16.1 0.00 0.00 0.00 23 1017.9
20260501234516 18 315 9.7 22.5 0.00 0.00 0.00 23 1017.9
20260501234016 18 0 9.7 17.7 0.00 0.00 0.00 23 1018.2
20260501233516 18 23 8.0 17.7 0.00 0.00 0.00 23 1018.2
20260501233016 18 0 11.3 24.1 0.00 0.00 0.00 23 1018.2
20260501232516 19 315 6.4 19.3 0.00 0.00 0.00 23 1018.1
20260501232016 18 0 6.4 17.7 0.00 0.00 0.00 22 1018.2
20260501231516 18 0 3.2 11.3 0.00 0.00 0.00 22 1018.2
20260501231016 18 23 11.3 22.5 0.00 0.00 0.00 22 1018.5
20260501230516 18 23 6.4 14.5 0.00 0.00 0.00 23 1018.6
20260501230016 18 338 8.0 16.1 0.00 0.00 0.00 21 1018.2
20260501225516 18 23 12.9 20.9 0.00 0.00 0.00 21 1018.6
20260501225016 18 0 9.7 19.3 0.00 0.00 0.00 21 1018.6
20260501224516 18 23 9.7 19.3 0.00 0.00 0.00 21 1018.5
20260501224016 18 0 12.9 22.5 0.00 0.00 0.00 21 1018.6
20260501223516 18 23 9.7 17.7 0.00 0.00 0.00 21 1018.6
20260501223016 18 0 9.7 17.7 0.00 0.00 0.00 22 1018.7
20260501222516 18 0 12.9 22.5 0.00 0.00 0.00 21 1018.8
20260501222016 18 45 6.4 16.1 0.00 0.00 0.00 21 1018.7
20260501221516 18 0 11.3 20.9 0.00 0.00 0.00 21 1018.8
20260501221016 18 0 11.3 22.5 0.00 0.00 0.00 21 1019.2
20260501220516 18 0 8.0 17.7 0.00 0.00 0.00 21 1019.1
20260501215516 18 338 11.3 19.3 0.00 0.00 0.00 22 1019.3
20260501215016 18 315 6.4 16.1 0.00 0.00 0.00 22 1019.3
20260501214516 18 315 8.0 17.7 0.00 0.00 0.00 22 1019.4
20260501214016 18 23 6.4 14.5 0.00 0.00 0.00 21 1019.7
20260501213516 18 23 8.0 17.7 0.00 0.00 0.00 21 1019.8
20260501213016 18 0 11.3 20.9 0.00 0.00 0.00 23 1019.9
20260501212516 18 23 6.4 12.9 0.00 0.00 0.00 21 1019.6
20260501212016 18 23 8.0 17.7 0.00 0.00 0.00 22 1019.7
20260501211516 18 338 9.7 17.7 0.00 0.00 0.00 20 1020.0
20260501211016 19 293 1.6 12.9 0.00 0.00 0.00 22 1020.0
20260501210516 18 0.0 4.8 0.00 0.00 0.00 22 1020.0
20260501210016 18 293 3.2 9.7 0.00 0.00 0.00 22 1019.8
20260501205516 18 0 3.2 11.3 0.00 0.00 0.00 25 1019.9
20260501205016 18 0 8.0 17.7 0.00 0.00 0.00 22 1019.8
20260501204516 18 0 6.4 14.5 0.00 0.00 0.00 22 1019.9
20260501204016 18 315 11.3 25.7 0.00 0.00 0.00 20 1020.3
20260501203516 18 0 8.0 16.1 0.00 0.00 0.00 23 1020.2
20260501203016 18 0 11.3 45.1 0.00 0.00 0.00 21 1019.9
20260501202516 17 315 4.8 45.1 0.00 0.00 0.00 23 1020.0
20260501202016 17 315 8.0 20.9 0.00 0.00 0.00 21 1020.0
20260501201516 18 45 8.0 14.5 0.00 0.00 0.00 22 1020.2
20260501201016 18 315 6.4 14.5 0.00 0.00 0.00 22 1020.3
20260501200516 17 68 4.8 12.9 0.00 0.00 0.00 23 1020.1
20260501200016 17 0 4.8 14.5 0.00 0.00 0.00 23 1020.2
20260501195516 17 0 3.2 12.9 0.00 0.00 0.00 23 1020.2
20260501195016 17 0 8.0 14.5 0.00 0.00 0.00 22 1020.2
20260501194516 17 0 6.4 12.9 0.00 0.00 0.00 22 1020.3
20260501194016 17 0 8.0 16.1 0.00 0.00 0.00 23 1021.0
20260501193516 17 0 6.4 14.5 0.00 0.00 0.00 21 1020.9
20260501193016 17 338 9.7 16.1 0.00 0.00 0.00 21 1021.0
20260501192516 17 270 3.2 9.7 0.00 0.00 0.00 23 1020.7
20260501192016 17 315 3.2 9.7 0.00 0.00 0.00 23 1021.1
20260501191516 17 315 3.2 9.7 0.00 0.00 0.00 21 1020.8
20260501191016 17 315 6.4 14.5 0.00 0.00 0.00 21 1021.2
20260501190516 17 315 4.8 11.3 0.00 0.00 0.00 22 1021.3
20260501190016 17 23 3.2 12.9 0.00 0.00 0.00 22 1021.2
20260501185516 17 0 3.2 8.0 0.00 0.00 0.00 21 1021.3
20260501185016 17 23 4.8 11.3 0.00 0.00 0.00 20 1021.4
20260501184516 17 45 3.2 14.5 0.00 0.00 0.00 22 1021.4
20260501184016 17 23 6.4 14.5 0.00 0.00 0.00 22 1021.5
20260501183516 16 45 1.6 11.3 0.00 0.00 0.00 24 1021.2
20260501183016 16 23 6.4 14.5 0.00 0.00 0.00 23 1021.2
20260501182516 16 45 4.8 14.5 0.00 0.00 0.00 23 1021.3
20260501182016 16 0 4.8 12.9 0.00 0.00 0.00 23 1021.3
20260501181516 16 0 4.8 11.3 0.00 0.00 0.00 27 1021.5
20260501181016 16 0 4.8 14.5 0.00 0.00 0.00 24 1021.7
20260501180516 16 0 1.6 6.4 0.00 0.00 0.00 27 1021.8
20260501180016 16 0 4.8 14.5 0.00 0.00 0.00 26 1021.6
20260501175516 16 0 4.8 11.3 0.00 0.00 0.00 28 1021.9
20260501175016 16 0 3.2 9.7 0.00 0.00 0.00 26 1021.6
20260501174516 15 0 1.6 9.7 0.00 0.00 0.00 27 1021.7
20260501174016 15 0 4.8 11.3 0.00 0.00 0.00 26 1021.8
20260501173516 15 0 4.8 9.7 0.00 0.00 0.00 27 1021.8
20260501173016 15 338 4.8 12.9 0.00 0.00 0.00 27 1021.8
20260501172516 15 338 3.2 11.3 0.00 0.00 0.00 28 1021.9
20260501172016 15 338 6.4 12.9 0.00 0.00 0.00 28 1021.9
20260501171516 15 338 1.6 6.4 0.00 0.00 0.00 30 1021.9
20260501171016 15 0 3.2 8.0 0.00 0.00 0.00 30 1021.9
20260501170516 15 338 4.8 9.7 0.00 0.00 0.00 29 1021.9
20260501170016 15 338 1.6 4.8 0.00 0.00 0.00 32 1021.9
20260501165516 14 338 1.6 8.0 0.00 0.00 0.00 31 1021.6
20260501165016 15 338 4.8 12.9 0.00 0.00 0.00 28 1021.9
20260501164516 15 338 1.6 11.3 0.00 0.00 0.00 31 1021.9
20260501164016 14 338 1.6 6.4 0.00 0.00 0.00 32 1021.9
20260501163516 14 338 3.2 12.9 0.00 0.00 0.00 32 1022.0
20260501163016 14 338 4.8 11.3 0.00 0.00 0.00 32 1021.9
20260501162016 14 315 1.6 4.8 0.00 0.00 0.00 35 1021.9
20260501161516 13 315 1.6 4.8 0.00 0.00 0.00 36 1021.9
20260501161016 13 0.0 4.8 0.00 0.00 0.00 35 1022.2
20260501160516 13 0.0 4.8 0.00 0.00 0.00 36 1022.2
20260501160016 13 315 1.6 6.4 0.00 0.00 0.00 38 1022.0
20260501155516 13 0.0 3.2 0.00 0.00 0.00 40 1021.9
20260501154016 12 0.0 3.2 0.00 0.00 0.00 40 1022.0
20260501153516 12 315 1.6 4.8 0.00 0.00 0.00 40 1022.0
20260501153016 12 0.0 4.8 0.00 0.00 0.00 41 1022.0
20260501152516 12 0.0 0.0 0.00 0.00 0.00 42 1022.0
20260501152016 12 0.0 0.0 0.00 0.00 0.00 42 1022.1
20260501151516 11 0.0 1.6 0.00 0.00 0.00 44 1022.1
20260501151016 11 0.0 3.2 0.00 0.00 0.00 44 1022.0
20260501150516 11 0.0 1.6 0.00 0.00 0.00 44 1021.7